RH
39 44 54 55 50 49 48 40 34 39 58 64 60 61 60 62 62 73 42 39 42 46 50 53 50 49 50 52 51 50 48 48 48 47 45 46 47 48 49 50 52 50 48 45 44 41 37 39 44
49 46 46 49 53 51 41 39 36 42 57 48 43 66 65 56 56 40 33 44 42 48 54 55 51 53 51 52 52 47 42 39 41 44 44 43 43 43 43 46 46 45 42 36 32 33 41 41 34
59 61 48 49 51 48 37 35 36 42 51 42 46 61 56 55 49 45 48 40 38 49 54 50 53 50 54 52 52 50 40 45 36 35 46 38 30 32 30 24 25 25 21 18 15 14 14 16 20
67 68 57 57 49 32 36 38 38 39 33 44 42 57 64 59 54 46 51 37 36 46 50 50 53 54 70 54 37 39 39 24 18 18 17 17 15 14 14 13 12 12 12 12 12 13 13 12 12
44 49 47 56 52 38 33 38 38 37 32 37 54 51 54 65 58 50 48 45 31 40 47 49 38 48 40 30 23 20 18 17 16 15 13 12 12 12 12 12 12 12 12 12 10 8 7 6 6
20 45 49 48 49 36 32 35 40 39 40 29 64 32 50 67 68 59 52 46 30 22 30 26 31 25 24 20 16 15 14 13 12 12 12 12 12 12 12 11 9 8 6 5 5 5 5 6 7
15 33 44 42 37 31 34 36 38 55 46 32 65 41 37 51 66 68 56 47 41 21 18 22 23 21 14 12 12 12 12 12 12 12 13 12 11 10 9 7 6 5 5 6 7 8 8 8 8
11 26 37 28 30 29 37 41 36 58 50 34 37 68 33 38 64 69 59 44 39 31 22 23 22 19 11 10 12 12 12 12 12 13 12 10 8 6 5 5 5 6 7 7 7 7 8 8 8
19 51 39 26 27 29 35 41 52 61 60 37 40 38 28 35 60 70 57 46 43 35 28 25 22 14 10 12 12 12 12 12 12 10 9 7 6 5 5 6 6 6 6 7 7 7 7 7 8
48 52 38 26 26 27 37 43 39 48 47 36 42 40 35 42 58 68 57 49 45 38 34 29 24 12 11 13 12 12 12 12 10 8 7 6 5 5 5 5 6 6 6 6 6 7 10 13 14
34 39 35 19 27 35 35 39 37 49 47 41 40 38 37 49 60 68 56 50 48 44 39 31 25 12 12 13 12 12 12 11 9 7 6 5 5 5 6 6 6 6 6 7 11 12 13 14 13
36 31 34 33 32 37 39 40 42 48 52 54 44 31 43 56 52 63 60 55 52 50 41 32 22 12 14 13 12 12 11 11 8 6 5 5 5 6 6 6 6 8 10 12 13 12 11 10 8
45 34 42 36 32 37 42 41 34 39 50 54 45 27 43 50 35 28 28 38 52 52 39 31 15 13 14 13 12 12 12 9 7 5 5 6 6 6 7 9 11 12 12 12 11 10 9 8 9
42 44 45 42 36 36 34 24 30 35 34 49 40 37 39 35 29 27 26 40 56 49 37 24 14 15 15 13 12 12 10 8 6 6 6 6 7 9 12 12 12 10 9 8 8 7 7 9 12
51 53 43 46 39 30 24 21 38 24 27 33 44 41 33 28 26 30 52 62 54 42 33 16 15 15 14 13 12 11 8 6 6 7 7 8 12 13 12 10 8 7 7 6 7 8 11 14 16
55 52 48 46 40 24 20 21 22 26 31 46 39 33 28 34 40 55 58 52 44 35 19 16 16 16 14 12 11 9 7 6 7 8 12 14 12 10 9 8 7 6 7 8 9 12 15 17 16
54 48 43 41 30 24 24 40 22 28 46 47 41 31 32 41 51 52 52 44 31 22 18 18 18 15 13 12 10 7 7 7 11 15 13 11 10 9 8 7 7 7 8 10 15 16 17 16 12
51 41 38 34 31 27 20 53 43 34 48 45 42 33 32 38 48 40 34 29 24 20 19 19 17 14 12 11 8 7 8 15 15 12 11 10 8 8 8 8 8 9 11 14 17 17 18 15 13
46 35 32 36 30 22 24 48 50 44 46 44 37 34 30 41 44 42 37 29 24 21 20 19 14 13 12 8 7 10 16 14 12 11 9 9 10 11 11 12 12 13 16 21 19 19 17 16 15
44 36 35 40 29 24 40 43 34 34 44 43 37 31 34 39 40 38 33 28 23 22 21 15 14 12 9 8 13 17 13 12 11 10 12 16 16 17 17 16 15 15 24 25 22 20 20 18 16
40 36 39 35 30 27 37 42 39 31 26 25 27 26 30 32 34 32 27 25 25 22 17 14 12 9 9 16 16 13 13 12 12 12 14 19 24 24 16 14 13 20 26 25 23 21 18 18 16
44 38 39 34 30 35 35 40 37 33 28 29 27 33 32 28 33 33 32 26 22 17 13 11 9 11 16 15 14 13 11 12 13 18 21 27 32 27 14 13 17 24 25 23 21 18 17 15 16
47 43 38 38 42 41 32 31 37 35 26 27 27 25 25 25 25 29 28 22 15 12 10 10 15 15 15 15 11 10 12 14 15 19 24 31 36 32 13 13 19 26 24 20 17 16 15 16 17
38 40 39 45 42 55 36 34 36 31 27 27 23 21 25 25 24 21 16 12 12 11 12 15 16 16 13 11 10 11 15 16 17 19 26 30 36 37 13 13 18 24 22 19 18 16 15 14 15
37 38 31 42 46 74 35 30 33 34 24 23 19 16 16 15 12 11 13 13 12 14 16 17 16 14 11 10 10 12 17 16 16 16 18 30 35 37 22 12 16 20 20 19 18 18 18 16 14
35 31 50 66 78 83 27 16 30 22 21 17 14 14 12 12 13 14 13 13 16 17 18 18 15 10 10 9 10 12 14 22 19 16 16 18 29 35 36 11 14 17 18 19 19 19 18 18 18
34 19 18 28 31 44 18 27 26 19 16 13 13 13 13 13 12 12 14 17 19 21 20 15 11 10 9 10 13 18 25 25 25 20 15 16 23 31 37 19 11 16 17 18 19 20 19 18 18
22 26 20 17 63 59 47 33 18 13 14 12 11 11 12 13 14 16 19 21 22 19 14 13 12 10 12 17 22 22 20 20 20 26 28 25 24 28 35 33 16 11 15 18 19 20 20 20 20
23 27 21 32 28 78 70 38 17 12 12 13 13 12 14 16 19 22 22 22 17 14 13 11 12 13 16 16 16 14 12 11 11 11 12 24 30 28 31 31 34 23 12 15 18 19 20 22 21
23 27 24 29 40 24 47 25 14 13 11 13 13 15 19 22 22 20 20 20 17 12 12 14 13 13 12 12 12 11 11 13 20 28 19 14 14 27 32 32 33 32 26 14 12 17 19 21 22
Wind_Speed
26 20 18 15 9 8 10 10 6 10 9 12 13 8 8 7 6 3 4 6 8 7 6 5 5 5 5 5 5 5 5 5 5 5 5 6 8 9 9 10 10 11 12 12 12 12 12 11 12
28 23 17 15 11 14 13 10 10 9 14 12 9 8 9 10 4 3 1 8 9 8 6 5 4 3 3 2 2 3 5 6 7 8 9 9 10 10 11 12 12 12 13 14 14 13 13 13 13
29 25 22 14 14 17 13 14 13 15 11 13 12 10 7 9 9 5 3 8 9 10 7 5 3 1 1 1 2 4 6 7 8 9 9 10 11 12 13 14 15 15 15 15 15 15 14 14 14
32 28 23 19 16 26 14 5 13 16 11 15 13 9 9 11 9 5 2 0 7 9 7 4 3 2 1 3 4 5 6 8 10 10 13 14 14 14 15 15 15 16 16 16 15 15 14 14 15
33 28 28 23 19 15 18 12 15 10 13 13 11 10 10 9 9 9 4 2 2 6 6 5 3 2 3 4 6 7 8 9 11 12 13 14 14 15 15 16 16 16 16 17 17 17 17 17 17
35 32 18 23 28 21 18 22 13 10 13 13 15 14 11 14 12 12 8 1 2 3 5 4 3 3 5 5 7 8 9 10 12 13 14 16 16 16 16 16 17 17 18 18 19 20 20 20 21
37 33 22 23 21 26 22 26 22 13 14 13 13 15 13 12 15 14 11 4 2 1 3 3 4 4 5 6 6 8 9 11 13 14 15 15 15 16 16 16 18 18 18 20 20 21 22 23 23
37 29 26 23 25 22 24 20 19 15 18 17 14 12 15 11 13 15 12 6 4 4 4 5 5 5 5 5 7 9 12 14 14 15 15 15 16 16 17 17 18 19 20 22 23 24 25 26 27
35 23 29 26 23 20 25 21 22 22 17 17 16 19 12 12 13 16 16 12 7 7 7 6 6 6 6 6 8 11 13 15 15 16 17 18 17 17 18 18 20 22 24 25 27 28 29 30 30
39 32 28 28 17 24 23 23 23 23 21 20 18 17 14 13 14 17 17 14 11 10 10 8 8 7 7 8 10 12 15 16 17 18 18 18 19 19 20 22 23 25 26 28 30 31 33 35 35
40 31 15 28 22 18 25 19 16 18 21 20 20 19 15 15 15 18 19 17 15 12 12 11 10 9 8 9 12 14 16 18 18 18 19 20 21 22 23 24 26 28 29 31 33 35 35 35 32
28 32 18 23 25 17 20 20 21 19 16 14 19 17 17 17 17 17 18 18 17 15 14 13 12 10 10 11 14 16 18 20 20 20 20 21 22 24 25 27 29 31 33 34 35 35 35 34 32
26 27 23 22 27 23 20 21 17 22 20 18 19 13 18 19 18 18 19 20 20 16 15 15 12 12 12 13 16 18 20 20 21 21 21 23 25 26 28 30 32 33 34 34 34 34 34 33 33
30 23 23 23 28 28 23 20 19 21 22 20 16 16 19 20 19 21 19 20 20 17 15 16 13 13 14 15 18 19 21 22 21 22 24 26 27 29 30 31 32 32 33 32 32 32 31 31 33
18 22 25 20 21 24 23 19 20 19 19 18 17 18 18 18 20 20 20 20 19 16 17 15 15 15 15 17 20 22 23 23 23 25 26 28 29 30 31 31 31 31 31 31 31 31 31 30 27
24 20 24 20 23 21 22 17 22 20 18 18 18 17 16 17 18 20 21 20 17 17 17 16 16 17 18 19 22 23 24 24 25 26 28 29 29 30 31 31 31 31 31 31 31 30 28 24 20
25 21 26 20 20 20 20 12 21 20 18 20 18 16 16 17 18 20 18 18 18 17 17 16 18 18 20 21 23 23 24 25 26 28 28 29 30 31 30 30 30 30 30 30 29 28 24 19 16
26 21 24 18 25 20 21 10 16 20 19 19 17 17 16 18 20 20 18 18 17 18 18 17 19 20 21 23 24 24 24 26 27 28 30 31 31 30 30 30 30 30 29 28 27 24 19 15 13
16 17 20 13 21 22 24 9 14 18 24 21 17 17 17 19 21 22 18 18 18 18 18 20 20 21 23 24 24 26 27 28 29 31 31 30 31 30 30 30 29 28 27 26 23 19 15 14 12
13 16 21 15 18 22 21 14 11 14 22 22 19 17 18 20 23 21 21 20 19 19 20 21 22 24 24 24 24 26 27 29 30 29 30 29 28 28 28 27 27 27 24 23 19 15 13 13 12
11 16 17 14 20 17 19 19 19 17 18 15 21 22 22 25 24 23 21 20 18 20 21 22 24 24 22 23 24 26 28 27 27 28 28 28 27 26 25 25 25 24 22 19 16 13 12 11 11
10 8 13 11 24 10 17 6 23 21 19 18 17 22 24 25 26 24 22 21 20 21 23 23 22 21 22 23 26 27 27 27 27 27 26 25 25 24 24 23 23 21 18 15 12 12 12 11 10
8 11 11 14 17 9 17 3 9 19 22 22 19 22 24 23 25 23 23 22 22 22 21 20 20 20 22 24 25 26 27 27 26 26 25 25 24 23 21 22 21 18 15 13 11 10 10 10 11
8 11 11 11 11 2 12 12 13 22 22 22 22 21 22 21 22 22 22 22 21 20 19 19 21 22 22 24 25 27 27 26 25 26 26 25 24 23 22 20 20 17 14 12 11 11 11 10 10
15 18 5 3 1 4 13 13 8 9 17 22 20 20 20 21 21 21 21 20 18 18 19 21 21 22 23 25 27 27 26 26 28 28 26 24 24 23 22 19 17 16 14 14 14 13 12 11 11
24 12 3 5 4 3 8 8 9 20 17 23 18 19 21 22 21 20 18 18 18 18 20 22 21 23 26 28 28 26 26 26 26 28 26 24 24 22 22 21 18 16 15 15 15 16 15 13 13
19 7 3 3 2 2 6 7 11 18 18 21 21 20 20 20 19 19 18 17 18 20 20 21 24 26 28 28 26 24 23 24 23 23 22 24 23 22 22 21 19 18 17 17 17 16 16 16 15
13 14 4 1 3 2 5 5 13 11 19 19 20 20 19 18 18 18 17 19 19 20 22 23 26 27 26 24 22 22 23 23 23 23 23 23 23 22 23 22 21 19 19 19 19 18 18 17 18
10 13 8 3 3 4 2 5 6 12 10 14 18 19 18 18 17 17 18 19 19 22 24 26 26 23 21 20 21 22 23 23 23 23 23 24 23 23 24 24 23 23 23 22 21 21 21 21 20
12 14 13 5 4 5 1 5 3 4 11 13 14 16 17 18 18 18 19 20 22 24 28 25 22 20 20 21 22 24 24 25 24 24 24 24 24 25 25 25 24 25 25 25 23 23 23 24 24
Wind_Direction
213 210 211 211 210 221 227 243 184 171 159 169 181 151 168 157 192 197 214 209 187 175 159 140 120 105 97 83 65 52 43 22 15 12 7 353 351 349 347 346 345 344 343 345 345 343 340 338 337
212 207 208 205 218 216 239 233 200 187 187 197 180 139 180 184 184 130 43 196 184 186 179 161 148 138 112 86 46 20 7 348 341 342 338 334 334 332 328 325 325 327 330 332 333 332 334 333 328
212 210 205 198 219 218 221 206 182 198 190 193 183 177 181 163 168 145 66 200 190 192 184 177 171 183 189 9 354 352 344 340 340 334 333 337 337 339 333 331 326 326 326 326 325 325 323 320 320
213 211 209 206 214 219 209 225 217 201 202 185 194 193 197 185 182 168 149 319 199 192 185 190 185 248 299 335 331 335 333 329 329 325 321 326 329 330 328 328 325 323 323 323 323 322 320 319 317
210 206 210 215 209 218 221 222 232 210 199 194 187 204 204 194 192 205 183 313 224 202 200 204 220 244 292 321 324 326 326 326 325 325 326 328 329 328 327 325 324 323 322 323 322 321 319 317 313
205 199 206 208 217 198 228 228 215 184 199 195 201 214 201 202 203 214 205 308 347 187 197 207 230 274 303 312 320 323 328 326 324 325 326 325 324 324 325 325 323 322 320 319 319 318 317 315 313
201 195 200 213 212 216 224 225 218 197 218 193 209 217 214 215 219 222 215 197 345 221 190 232 269 284 301 309 318 320 324 325 325 323 322 322 321 320 319 320 316 318 318 317 315 313 311 309 308
195 195 207 205 210 215 216 227 212 210 212 202 208 230 221 225 222 224 219 210 210 264 232 247 273 291 304 305 313 322 327 326 325 322 319 317 317 316 315 318 316 317 315 313 312 311 309 307 306
180 197 205 202 208 209 215 213 182 199 207 203 214 240 238 230 227 218 215 222 218 247 258 257 274 284 275 294 312 323 325 323 323 320 318 318 318 318 317 318 315 316 314 314 314 313 310 306 304
185 192 201 182 198 220 208 206 216 205 213 231 235 244 243 229 223 222 218 226 229 242 259 259 266 268 279 301 314 321 323 322 321 320 319 319 318 318 317 318 316 315 314 314 313 311 308 304 302
187 187 178 191 220 210 211 215 229 209 232 236 239 239 234 228 222 219 218 227 236 241 251 259 264 267 281 303 312 320 321 321 318 321 321 321 320 320 320 319 318 317 316 314 311 310 306 305 303
193 176 176 209 200 202 207 192 220 192 227 216 230 223 220 220 222 220 221 230 243 245 251 259 263 268 287 302 311 320 321 317 321 323 321 320 320 320 320 318 318 317 315 314 312 311 308 306 304
181 172 211 198 198 204 199 195 210 204 207 216 234 225 218 222 226 229 232 234 237 240 248 259 261 273 286 305 311 317 313 318 321 319 320 320 320 320 320 319 317 316 315 314 312 311 310 307 303
171 208 205 190 198 202 213 209 198 208 213 216 228 223 224 231 235 235 234 231 232 235 245 255 261 273 295 304 311 313 317 319 318 320 322 322 322 322 320 318 318 317 317 315 314 311 310 308 305
178 195 204 201 201 206 206 208 200 214 212 213 221 222 230 237 235 234 224 222 227 235 248 253 265 278 293 306 315 317 316 317 321 322 323 323 322 321 319 319 318 317 316 315 314 314 312 310 307
185 194 179 191 195 196 203 205 207 209 207 208 218 227 235 236 233 223 220 222 230 241 247 257 270 286 302 311 311 314 316 319 321 322 321 321 321 319 319 318 317 317 317 317 316 315 312 309 306
175 181 184 190 186 198 191 199 214 206 206 212 225 234 235 227 228 225 224 228 235 243 254 264 279 295 302 307 310 313 315 317 319 319 320 320 318 318 318 317 318 318 318 317 315 314 310 304 301
184 177 185 200 191 189 183 185 207 207 208 217 228 241 234 228 229 229 229 232 239 249 259 273 286 295 301 308 311 313 313 314 316 319 319 318 319 319 318 318 317 316 316 314 312 310 304 296 293
178 174 177 186 187 194 187 202 199 211 213 220 225 239 242 232 235 235 239 241 246 254 268 279 288 295 304 308 311 311 315 318 319 319 320 320 321 320 319 317 315 315 315 314 310 306 298 294 293
180 191 180 168 178 181 188 205 231 211 215 227 232 239 243 238 238 238 238 242 250 262 272 281 289 298 302 307 308 311 314 315 317 320 321 320 319 320 319 319 319 318 318 316 310 303 299 296 297
169 193 169 181 180 172 185 203 230 223 220 234 236 238 242 239 243 244 243 248 258 270 276 284 292 296 301 303 306 309 311 314 315 314 319 323 324 324 323 323 323 321 318 317 310 305 300 300 302
174 164 171 180 172 168 179 223 226 235 235 236 238 229 238 238 242 247 256 264 268 273 281 287 290 294 298 300 303 307 310 312 314 316 319 321 324 324 324 325 325 323 321 318 315 314 311 307 301
166 144 150 158 169 158 193 220 199 230 231 232 237 231 236 238 244 250 258 266 272 276 281 286 289 292 296 300 304 306 307 308 310 312 315 318 322 323 322 325 327 325 321 316 313 312 312 308 304
162 168 146 154 170 195 189 208 201 217 231 229 232 230 231 237 244 251 259 266 271 277 280 284 288 293 299 302 305 305 304 305 307 308 311 314 318 320 321 324 322 320 315 310 311 313 314 312 308
168 147 112 52 140 215 194 212 253 234 213 231 231 229 231 237 245 252 258 265 271 276 281 286 292 298 300 302 303 302 302 303 304 303 306 309 311 313 315 315 315 312 309 308 306 304 308 310 309
156 165 145 168 178 208 171 216 218 233 234 238 237 231 233 240 247 254 258 264 268 275 283 289 295 299 301 301 299 298 301 306 309 305 295 301 304 304 307 307 309 306 303 299 299 302 304 307 308
170 174 110 106 116 142 199 222 235 232 224 228 232 234 236 243 250 256 259 264 273 280 287 295 299 300 299 297 296 298 302 307 310 312 302 297 298 296 298 297 299 301 299 294 291 294 297 300 300
181 190 194 155 95 250 222 237 234 227 229 228 229 234 239 242 244 252 260 270 277 284 292 297 300 299 297 296 297 298 301 304 306 308 305 301 297 292 291 292 290 290 287 286 286 286 286 287 291
186 197 198 194 215 180 190 242 238 238 240 232 232 237 239 245 251 262 268 272 278 288 295 300 299 297 298 297 296 296 299 302 304 303 300 298 296 291 288 289 290 289 284 281 281 281 281 281 280
215 194 196 205 213 222 247 263 245 247 226 230 233 240 247 256 261 263 264 270 282 291 297 295 292 291 293 295 296 298 299 299 300 301 300 297 294 291 288 288 290 288 285 280 277 277 278 277 278